Laramie, WY

8:58 PM MST on December 12, 2017 (GMT -0700)
Laramie Regional

Weather History for KLAR - November, 2010

Change the Weather History Date:

Wednesday, November 3, 2010

  Actual Average Record
Temperature  
Mean Temperature 38 °F 35 °F  
Max Temperature 51 °F 48 °F 67 °F (1949)
Min Temperature 24 °F 22 °F -16 °F (1967)
Degree Days  
Heating Degree Days 27 30  
Month to date heating degree days 76 88  
Since 1 July heating degree days 1031 1331  
Cooling Degree Days 0 0  
Month to date cooling degree days 0 0  
Year to date cooling degree days 73 67  
Moisture  
Dew Point 24 °F    
Average Humidity 61    
Maximum Humidity 92    
Minimum Humidity 29    
Precipitation  
Precipitation 0.00 in 0.02 in 0.58 in (1973)
Month to date precipitation T 0.06  
Year to date precipitation 10.09 10.12  
Sea Level Pressure  
Sea Level Pressure 30.51 in    
Wind  
Wind Speed 7 mph (NNW)    
Max Wind Speed 21 mph    
Max Gust Speed 26 mph    
Visibility 10 miles    
Events      
T = Trace of Precipitation, MM = Missing Value Source: NWS Daily Summary

Daily Weather History Graph

Daily Weather History Graph

Search for Another Location

Airport or City:

Trip Planner

Search our weather history database for the weather conditions in past years. The results will help you decide how hot, cold, wet, or windy it might be!

Date:

Astronomy

Nov. 03, 2010 Rise Set
Actual Time 7:36 AM MDT 5:55 PM MDT
Civil Twilight 7:07 AM MDT 6:24 PM MDT
Nautical Twilight 6:34 AM MDT 6:56 PM MDT
Astronomical Twilight 6:02 AM MDT 7:29 PM MDT
Moon 4:37 AM MDT (11/3) 4:08 PM MDT (11/3)
Length of Visible Light 11h 16m
Length of Day
10h 18m
Waning Crescent, 8% of the Moon is Illuminated
Nov 3
Waning Crescent
Nov 5
New
Nov 13
First Quarter
Nov 21
Full
Nov 28
Last Quarter

Hourly Weather History & Observations

Time (MDT) Temp. Windchill Dew Point Humidity Pressure Visibility Wind Dir Wind Speed Gust Speed Precip Events Conditions
12:53 AM 37.0 °F - 28.9 °F 73% 30.39 in 10.0 mi Calm Calm - N/A   Clear
1:53 AM 30.9 °F - 27.0 °F 85% 30.41 in 10.0 mi Calm Calm - N/A   Clear
2:53 AM 32.0 °F - 26.1 °F 79% 30.40 in 10.0 mi Calm Calm - N/A   Clear
3:53 AM 28.9 °F 25.2 °F 25.0 °F 85% 30.42 in 10.0 mi SW 3.5 mph - N/A   Clear
4:53 AM 27.0 °F 21.6 °F 24.1 °F 89% 30.45 in 10.0 mi SSW 4.6 mph - N/A   Clear
5:53 AM 28.0 °F - 24.1 °F 85% 30.48 in 10.0 mi Calm Calm - N/A   Clear
6:53 AM 26.1 °F - 25.0 °F 96% 30.53 in 10.0 mi Calm Calm - N/A   Clear
7:53 AM 28.0 °F - 24.1 °F 85% 30.56 in 10.0 mi Calm Calm - N/A   Clear
8:53 AM 30.0 °F - 28.0 °F 92% 30.58 in 10.0 mi Calm Calm - N/A   Partly Cloudy
9:53 AM 39.9 °F - 30.9 °F 70% 30.58 in 10.0 mi Calm Calm - N/A   Clear
10:53 AM 44.1 °F 41.5 °F 30.9 °F 60% 30.56 in 10.0 mi Variable 4.6 mph - N/A   Clear
11:53 AM 46.0 °F 43.1 °F 30.9 °F 56% 30.54 in 10.0 mi WNW 5.8 mph - N/A   Clear
12:53 PM 48.9 °F - 28.0 °F 44% 30.48 in 10.0 mi North 10.4 mph 19.6 mph N/A   Clear
1:53 PM 50.0 °F - 27.0 °F 41% 30.48 in 10.0 mi North 16.1 mph 21.9 mph N/A   Clear
2:53 PM 50.0 °F - 26.1 °F 39% 30.46 in 10.0 mi North 12.7 mph 20.7 mph N/A   Clear
3:53 PM 50.0 °F - 24.1 °F 36% 30.46 in 10.0 mi North 18.4 mph 24.2 mph N/A   Clear
4:53 PM 48.0 °F - 17.1 °F 29% 30.49 in 10.0 mi North 16.1 mph 21.9 mph N/A   Clear
5:53 PM 43.0 °F 36.8 °F 17.1 °F 35% 30.52 in 10.0 mi North 11.5 mph - N/A   Clear
6:53 PM 37.9 °F 32.1 °F 18.0 °F 45% 30.59 in 10.0 mi North 8.1 mph - N/A   Clear
7:53 PM 34.0 °F 26.6 °F 19.9 °F 56% 30.61 in 10.0 mi NW 9.2 mph - N/A   Clear
8:53 PM 30.0 °F 21.1 °F 21.0 °F 69% 30.62 in 10.0 mi NW 10.4 mph - N/A   Clear
9:53 PM 30.9 °F 22.8 °F 21.0 °F 67% 30.56 in 10.0 mi NNW 9.2 mph - N/A   Clear
10:53 PM 25.0 °F 15.5 °F 19.0 °F 78% 30.56 in 10.0 mi SSE 9.2 mph - N/A   Clear
11:53 PM 25.0 °F 18.1 °F 19.0 °F 78% 30.53 in 10.0 mi South 5.8 mph - N/A   Clear